Regional Weather Roundup
Issued by NWS Little Rock, AR

Home | Current Version | Previous Version | Graphics & Text | Print | Product List | Glossary On
Versions: 1 2 3 4 5 6 7 8 9 10 11 12 13 14 15 16 17 18 19 20 21 22 23 24 25 26 27 28 29 30 31 32 33 34 35 36 37 38 39 40 41 42 43 44 45 46 47 48 49 50
000
ASUS44 KLZK 012205
RWRLZK

WEATHER ROUNDUP FOR ARKANSAS
NATIONAL WEATHER SERVICE LITTLE ROCK AR
500 PM CDT MON SEP 01 2014

NOTE: "FAIR" INDICATES FEW OR NO CLOUDS BELOW 12,000 FEET WITH NO
SIGNIFICANT WEATHER AND/OR OBSTRUCTIONS TO VISIBILITY.

ARZ001-003-010-029-012300-
NORTHWEST ARKANSAS

CITY           SKY/WX    TMP DP  RH WIND       PRES   REMARKS
FAYETTEVILLE   MOSUNNY   87  70  56 S17       29.89F HX  92
FORT SMITH     SUNNY     92  70  48 S15G21    29.87S HX  97
HARRISON       MOSUNNY   83  70  64 S12G23    29.92F HX  87
BENTONVILLE    MOSUNNY   88  70  55 S17       29.90F HX  92
ROGERS         MOSUNNY   85  69  58 S18       29.90F HX  89
HIGHFILL       MOSUNNY   88  70  55 S16G28    29.88F HX  93
SPRINGDALE     MOSUNNY   88  70  55 S21       29.91F HX  92
$$

ARZ004-005-016-012300-
NORTH CENTRAL ARKANSAS

CITY           SKY/WX    TMP DP  RH WIND       PRES   REMARKS
BATESVILLE     SUNNY     91  70  49 S13G21    29.92S HX  97
FLIPPIN        MOSUNNY   86  66  51 S7G17     29.91F HX  88
MTN HOME       MOSUNNY   88  69  53 S12G23    29.91F HX  92
$$

ARZ040-041-012300-
WEST CENTRAL ARKANSAS

CITY           SKY/WX    TMP DP  RH WIND       PRES   REMARKS
MENA           MOSUNNY   90  72  55 CALM      29.94S HX  96
MOUNT IDA      MOSUNNY   88  72  58 VRB3      29.92F HX  94
$$

ARZ009-017-025-026-028-012300-
NORTHEAST ARKANSAS

CITY           SKY/WX    TMP DP  RH WIND       PRES   REMARKS
CORNING        LGT RAIN  88  73  62 SW13G18   29.92S HX  96
JONESBORO      SUNNY     90  71  53 SW21G26   29.92F HX  96
NEWPORT        MOSUNNY   91  71  51 S20       29.93F HX  97
WALNUT RIDGE   MOSUNNY   90  57  33 S21       29.90S HX  88
BLYTHEVILLE    MOSUNNY   89  74  60 S13G21    29.94F HX  98
$$

ARZ022-023-033-042-044-012300-
CENTRAL ARKANSAS

CITY           SKY/WX    TMP DP  RH WIND       PRES   REMARKS
LITTLE ROCK    MOSUNNY   90  70  51 S10       29.93F HX  95
N LITTLE ROCK  MOSUNNY   89  72  55 S13G21    29.93F HX  96
JACKSONVILLE   MOSUNNY   92  72  52 S9        29.93F HX  99
SEARCY         MOSUNNY   91  74  57 W12       29.94F HX 100
HOT SPRINGS    MOSUNNY   89  69  51 S10       29.93F HX  93
RUSSELLVILLE   PTSUNNY   91  69  48 VRB6      29.90F HX  96
CLINTON        FAIR      90  73  58 S10G16    29.92F HAZE    HX  98
$$

ARZ036-012300-
EAST ARKANSAS

CITY           SKY/WX    TMP DP  RH WIND       PRES   REMARKS
WEST MEMPHIS   MOSUNNY   89  77  67 S10       29.93F HX 101
$$

ARZ050-053-066-070-073-012300-
SOUTHWEST ARKANSAS

CITY           SKY/WX    TMP DP  RH WIND       PRES   REMARKS
ARKADELPHIA    FAIR      93  74  54 S8        29.92F HX 102
CAMDEN         SUNNY     91  73  55 S9        29.93F HX 100
TEXARKANA      MOSUNNY   92  68  45 S9G20     29.90F HX  96
EL DORADO      MOSUNNY   86  76  71 S5        29.94F HX  96
DE QUEEN       SUNNY     92  71  50 SE8       29.88F HX  98
$$

ARZ056-057-069-012300-
SOUTHEAST ARKANSAS

CITY           SKY/WX    TMP DP  RH WIND       PRES   REMARKS
PINE BLUFF     SUNNY     89  72  56 S12       29.94F HX  96
STUTTGART      MOSUNNY   91  72  52 S12       29.95F HX  98
MONTICELLO     MOSUNNY   85  75  72 CALM      29.96F HX  93

$$




USA.gov is the U.S. government's official web portal to all federal, state and local government web resources and services.